Regional Weather Roundup
Issued by NWS Raleigh/Durham, NC

Home | Current Version | Previous Version | Text Only | Print | Product List | Glossary On
Versions: 1 2 3 4 5 6 7 8 9 10 11 12 13 14 15 16 17 18 19 20 21 22 23 24 25 26 27 28 29 30 31 32 33 34 35 36 37 38 39 40 41 42 43 44 45 46 47 48 49
000
ASUS42 KRAH 221510
RWRRAH
NORTH CAROLINA WEATHER ROUNDUP
NATIONAL WEATHER SERVICE RALEIGH NC
1000 AM EST MON DEC 22 2014

NOTE: "FAIR" INDICATES FEW OR NO CLOUDS BELOW 12,000 FEET WITH NO
SIGNIFICANT WEATHER AND/OR OBSTRUCTIONS TO VISIBILITY.

NCZ001-053-055-056-065-067-221600-
WESTERN NORTH CAROLINA

CITY           SKY/WX    TMP DP  RH WIND       PRES   REMARKS
ASHEVILLE      CLOUDY    40  38  93 S7        30.09R FOG
JEFFERSON      FOG       34  34 100 CALM      30.09S VSB 1/2
MORGANTON      CLOUDY    38  38  97 N5        30.19R FOG     WCI  35
HICKORY        CLOUDY    38  36  92 NE7       30.14S FOG     WCI  33
RUTHERFORDTON  CLOUDY    40  39  97 N5        30.15R FOG
MOUNT AIRY     CLOUDY    37  35  91 NE6       30.17F FOG     WCI  33
BOONE          CLOUDY    36  36 100 CALM      30.10R FOG
$$

NCZ021-022-025-041-071-084-088-221600-
CENTRAL NORTH CAROLINA

CITY           SKY/WX    TMP DP  RH WIND       PRES   REMARKS
CHARLOTTE      DRIZZLE   39  36  89 NE9       30.14S FOG     WCI  33
GREENSBORO     DRIZZLE   35  33  92 NE13G21   30.15R FOG     WCI  26
WINSTON-SALEM  CLOUDY    34  32  92 NE14      30.16F FOG     WCI  25
RALEIGH-DURHAM DRIZZLE   37  34  89 NE9       30.16S FOG     WCI  30
FORT BRAGG     CLOUDY    40  38  94 NE6       30.13S
FAYETTEVILLE   CLOUDY    41  39  93 NE10      30.12S
BURLINGTON     CLOUDY    36  33  89 N8        30.16S FOG     WCI  30
LAURINBURG     LGT RAIN  40  39  97 NE9       30.13S FOG     WCI  34
$$

NCZ011-015-027-028-043-044-047-080-103-221600-
NORTHEASTERN NORTH CAROLINA

CITY           SKY/WX    TMP DP  RH WIND       PRES   REMARKS
ROCKY MT-WILSO CLOUDY    40  38  93 N10       30.16S WCI  33
GREENVILLE     HVY RAIN  41  41 100 N8        30.15F
WASHINGTON     CLOUDY    43  41  95 N10       30.11F
ELIZABETH CITY HVY RAIN  51  46  83 NE18      30.14S
MANTEO         DRIZZLE   53  53  99 NE10      30.10S
CAPE HATTERAS  LGT RAIN  58  58 100 SE9       30.06R FOG
$$

NCZ078-087-090-091-093-098-101-221600-
SOUTHEASTERN NORTH CAROLINA

CITY           SKY/WX    TMP DP  RH WIND       PRES   REMARKS
LUMBERTON      CLOUDY    43  40  89 N9        30.11F
GOLDSBORO      LGT RAIN  41  41 100 N8        30.11S
KINSTON        RAIN      41  39  93 N8        30.13S
KENANSVILLE    CLOUDY    41  40  98 N8        30.13S
NEW BERN       LGT RAIN  48  44  86 N7        30.10F FOG
CHERRY POINT   LGT RAIN  48  46  93 N14       30.09S FOG
BEAUFORT       CLOUDY    51  51 100 NW15      30.06R FOG
JACKSONVILLE   LGT RAIN  45  43  93 N10       30.09S
WILMINGTON     CLOUDY    44  43  96 NW10      30.10R
$$



USA.gov is the U.S. government's official web portal to all federal, state and local government web resources and services.